Regional Weather Roundup
Issued by NWS

Home | Current Version | Previous Version | Text Only | Print | Product List | Glossary On
Versions: 1 2 3 4 5 6 7 8 9 10 11 12 13 14 15 16 17 18 19 20 21 22 23 24 25 26 27 28 29 30 31 32 33 34 35 36 37 38 39 40 41 42 43 44 45 46 47 48 49 50
000
ASUS44 KLIX 011811
RWRLA
LOUISIANA WEATHER ROUNDUP
NATIONAL WEATHER SERVICE NEW ORLEANS LA
100 PM CDT FRI JUL 01 2016

NOTE: "FAIR" INDICATES FEW OR NO CLOUDS BELOW 12,000 FEET WITH NO
      SIGNIFICANT WEATHER AND/OR OBSTRUCTIONS TO VISIBILITY.
      SKY/WX - SKY CONDITION AND SIGNIFICANT WEATHER.
      TMP - AIR TEMPERATURE.    DP   - DEWPOINT TEMPERATURE.
      RH  - RELATIVE HUMIDITY.  PRES - PRESSURE.
      HX  - HEAT INDEX.         WCI  - WIND CHILL INDEX.

*  THESE STATIONS ARE NOT NWS OR FAA STATIONS AND ARE NOT UNDER
   NWS QUALITY CONTROL.

LAZ040-048-061>063-065-066-069-011900-
SOUTHEAST LOUISIANA

CITY           SKY/WX    TMP DP  RH WIND       PRES   REMARKS
N.O. AUDUBON     N/A     95 N/A N/A MISG        N/A
6HR MIN TEMP:  81; 6HR MAX TEMP:  96;

N.O. INTL ARPT MOSUNNY   93  73  52 VRB5      30.02F HX 102
6HR MIN TEMP:  80; 6HR MAX TEMP:  93;

N.O. LAKEFRONT SUNNY     88  74  63 NW6       30.03F HX  96
6HR MIN TEMP:  81; 6HR MAX TEMP:  89;

N.O. DOWNTOWN* FAIR      90  72  55 N7        30.03F HX  97
6HR MIN TEMP:  79; 6HR MAX TEMP:  92;

RESERVE*       FAIR      94  66  39 N5        30.02F HX  97
6HR MIN TEMP:  77; 6HR MAX TEMP:  94;

SLIDELL        MOSUNNY   92  72  51 VRB7      30.01F HX  99
BATON ROUGE    MOSUNNY   94  65  38 VRB6      30.03F HX  96
6HR MIN TEMP:  75; 6HR MAX TEMP:  96;

BOOTHVILLE     SUNNY     86  73  65 N5        30.03F
6HR MIN TEMP:  79; 6HR MAX TEMP:  87;

BELLE CHASSE   MOSUNNY   91  73  55 VRB5      30.01F HX  99
6HR MIN TEMP:  75; 6HR MAX TEMP:  92;

BOGALUSA*      FAIR      93  66  40 N7        30.04F HX  95
6HR MIN TEMP:  72; 6HR MAX TEMP:  93;

GALLIANO*      CLEAR     90  74  58 NE6       30.03S HX  99
6HR MIN TEMP:  65; 6HR MAX TEMP:  90;

NEW ROADS*     FAIR      91  66  42 NW6       30.04F
6HR MIN TEMP:  71; 6HR MAX TEMP:  92;

GONZALES*      FAIR      92  70  48 N6        30.01F HX  98
6HR MIN TEMP:  74; 6HR MAX TEMP:  92;

HAMMOND*       SUNNY     93  63  36 NE6       30.02F
HOUMA*         NOT AVBL
PORT FOURCHON* PTCLDY    88  73  62 CALM      30.03F HX  96

$$

LAZ041-044-053-054-011900-
SOUTHWEST LOUISIANA

CITY           SKY/WX    TMP DP  RH WIND       PRES   REMARKS
LAKE CHARLES   PTSUNNY   91  72  53 NW5       30.03F HX  98
6HR MIN TEMP:  78; 6HR MAX TEMP:  94;

LAFAYETTE      SUNNY     94  68  42 N3        30.03F HX  98
6HR MIN TEMP:  77; 6HR MAX TEMP:  95;

PATTERSON      PTSUNNY   90  76  63 NE5       30.03F HX 101
6HR MIN TEMP:  75; 6HR MAX TEMP:  91;

SALT POINT       N/A     87  75  67 W6        30.03  HX  96
6HR MIN TEMP:  77; 6HR MAX TEMP:  88;

NEW IBERIA     SUNNY     93  72  50 N7        30.04S HX 101
6HR MIN TEMP:  76; 6HR MAX TEMP:  94; 6HR PCP: TRACE;

CHENAULT AIRPK NOT AVBL

$$

LAZ027-028-011900-
CENTRAL LOUISIANA

CITY           SKY/WX    TMP DP  RH WIND       PRES   REMARKS
FORT POLK      SUNNY     91  66  43 VRB2      30.04F
6HR MIN TEMP:  71; 6HR MAX TEMP:  91;

ALEXANDRIA INT SUNNY     93  65  39 N6        30.03F HX  95
6HR MIN TEMP:  70; 6HR MAX TEMP:  93;

ALEXANDRIA     SUNNY     95  66  38 CALM      30.05S HX  98
6HR MIN TEMP:  71; 6HR MAX TEMP:  95;


$$

LAZ001-002-011900-
NORTHWEST LOUISIANA

CITY           SKY/WX    TMP DP  RH WIND       PRES   REMARKS
SHREVEPORT     MOSUNNY   93  68  43 CALM      30.04F HX  97
6HR MIN TEMP:  72; 6HR MAX TEMP:  94;

BARKSDALE AFB  SUNNY     93  62  35 CALM      30.04F
6HR MIN TEMP:  70; 6HR MAX TEMP:  93;

DTN SHREVEPORT MOSUNNY   91  68  46 VRB5      30.04F HX  95
6HR MIN TEMP:  74; 6HR MAX TEMP:  94;


$$

LAZ014-016-011900-
NORTHEAST LOUISIANA

CITY           SKY/WX    TMP DP  RH WIND       PRES   REMARKS
MONROE         SUNNY     93  68  43 N7        30.05F HX  97
6HR MIN TEMP:  70; 6HR MAX TEMP:  93;

TALLULAH       SUNNY     93  67  42 VRB5      30.04F HX  96
6HR MIN TEMP:  71; 6HR MAX TEMP:  94;


$$




USA.gov is the U.S. government's official web portal to all federal, state and local government web resources and services.